N931CD KJWN-

Flight info

Callsign N931CD
Flight time N/A
Altitude VFR
Route VFR SE
Aircraft BE36/L-DOV/C

Departure

Time 2026-05-04 02:13
Airport John C Tune Airport (KJWN)

Arrival

Time N/A
Airport -
Time Latitude Longitude Altitude Speed Heading
2026-05-04 02:12 36.14955 -86.89402 1150 ft 119 kts 189°
2026-05-04 02:13 36.14128 -86.89538 1374 ft 118 kts 189°
2026-05-04 02:13 36.13374 -86.89208 1620 ft 126 kts 136°
2026-05-04 02:13 36.13110 -86.88114 1753 ft 138 kts 105°
2026-05-04 02:13 36.12906 -86.86961 1953 ft 134 kts 123°
2026-05-04 02:14 36.12420 -86.86005 2158 ft 132 kts 130°
2026-05-04 02:14 36.11960 -86.85011 2343 ft 134 kts 126°
2026-05-04 02:14 36.11516 -86.83997 2508 ft 134 kts 126°
2026-05-04 02:14 36.11080 -86.82969 2673 ft 136 kts 125°
2026-05-04 02:15 36.10644 -86.81933 2835 ft 136 kts 125°
2026-05-04 02:15 36.10207 -86.80888 3011 ft 137 kts 125°
2026-05-04 02:15 36.09769 -86.79838 3201 ft 138 kts 125°
2026-05-04 02:15 36.09328 -86.78785 3362 ft 138 kts 125°
2026-05-04 02:16 36.08883 -86.77723 3508 ft 140 kts 124°
2026-05-04 02:16 36.08418 -86.76618 3535 ft 150 kts 124°
2026-05-04 02:16 36.07927 -86.75447 3549 ft 157 kts 123°
2026-05-04 02:16 36.07418 -86.74228 3545 ft 162 kts 123°
2026-05-04 02:17 36.06897 -86.72985 3546 ft 165 kts 123°
2026-05-04 02:17 36.06368 -86.71725 3545 ft 169 kts 123°
2026-05-04 02:17 36.05837 -86.70416 3546 ft 173 kts 117°
2026-05-04 02:17 36.05460 -86.68992 3548 ft 175 kts 112°
2026-05-04 02:18 36.05131 -86.67536 3538 ft 179 kts 98°
2026-05-04 02:18 36.05492 -86.66075 3537 ft 183 kts 51°
2026-05-04 02:18 36.06443 -86.65043 3538 ft 182 kts 36°
2026-05-04 02:18 36.07445 -86.64071 3549 ft 183 kts 36°
2026-05-04 02:19 36.08450 -86.63097 3541 ft 184 kts 36°
2026-05-04 02:19 36.09455 -86.62129 3543 ft 183 kts 36°
2026-05-04 02:19 36.10471 -86.61148 3509 ft 186 kts 36°
2026-05-04 02:19 36.11490 -86.60169 3508 ft 185 kts 36°
2026-05-04 02:20 36.12506 -86.59194 3511 ft 185 kts 36°
2026-05-04 02:20 36.13520 -86.58216 3508 ft 184 kts 36°
2026-05-04 02:20 36.14534 -86.57241 3510 ft 185 kts 36°
2026-05-04 02:20 36.15553 -86.56265 3509 ft 185 kts 36°
2026-05-04 02:21 36.16574 -86.55292 3507 ft 185 kts 35°
2026-05-04 02:21 36.17591 -86.54320 3507 ft 184 kts 36°
2026-05-04 02:21 36.18609 -86.53348 3509 ft 185 kts 36°
2026-05-04 02:21 36.19626 -86.52381 3509 ft 184 kts 36°
2026-05-04 02:22 36.20646 -86.51416 3507 ft 185 kts 36°
2026-05-04 02:22 36.21664 -86.50449 3508 ft 184 kts 35°
2026-05-04 02:22 36.22681 -86.49480 3521 ft 185 kts 37°
2026-05-04 02:22 36.23366 -86.48190 3512 ft 180 kts 81°
2026-05-04 02:23 36.23164 -86.46749 3511 ft 167 kts 129°
2026-05-04 02:23 36.22318 -86.45870 3513 ft 156 kts 160°
2026-05-04 02:23 36.21327 -86.45368 3520 ft 153 kts 165°
2026-05-04 02:23 36.20334 -86.44882 3520 ft 154 kts 164°
2026-05-04 02:24 36.19349 -86.44338 3520 ft 156 kts 162°
2026-05-04 02:24 36.18336 -86.43959 3515 ft 149 kts 180°
2026-05-04 02:24 36.17322 -86.44043 3512 ft 145 kts 198°
2026-05-04 02:24 36.16414 -86.44527 3514 ft 141 kts 215°
2026-05-04 02:25 36.15663 -86.45236 3492 ft 132 kts 219°
2026-05-04 02:25 36.14923 -86.45926 3340 ft 135 kts 219°
2026-05-04 02:25 36.14168 -86.46638 3160 ft 138 kts 219°
2026-05-04 02:25 36.13404 -86.47358 2978 ft 139 kts 219°
2026-05-04 02:26 36.12635 -86.48085 2793 ft 139 kts 219°
2026-05-04 02:26 36.11861 -86.48814 2607 ft 139 kts 219°
2026-05-04 02:26 36.11093 -86.49538 2421 ft 138 kts 218°
2026-05-04 02:26 36.10323 -86.50233 2237 ft 135 kts 212°
2026-05-04 02:27 36.09466 -86.50612 2058 ft 127 kts 194°
2026-05-04 02:27 36.08617 -86.50753 1893 ft 119 kts 192°
2026-05-04 02:27 36.07825 -86.50895 1737 ft 111 kts 192°
2026-05-04 02:27 36.07091 -86.51021 1581 ft 103 kts 191°
2026-05-04 02:28 36.06405 -86.51144 1460 ft 98 kts 191°
2026-05-04 02:28 36.05713 -86.51265 1335 ft 103 kts 189°
2026-05-04 02:28 36.04995 -86.51389 1211 ft 106 kts 189°
2026-05-04 02:28 36.04250 -86.51523 1043 ft 110 kts 189°
2026-05-04 02:29 36.03507 -86.51677 944 ft 107 kts 190°
2026-05-04 02:29 36.02771 -86.51842 798 ft 107 kts 189°
2026-05-04 02:29 36.02049 -86.51938 656 ft 102 kts 184°
2026-05-04 02:29 36.01369 -86.51999 531 ft 96 kts 184°
2026-05-04 02:30 36.00720 -86.52059 543 ft 95 kts 185°
2026-05-04 02:30 36.00043 -86.52149 670 ft 98 kts 185°
2026-05-04 02:30 35.99377 -86.52195 873 ft 95 kts 182°
2026-05-04 02:30 35.98715 -86.52193 1021 ft 98 kts 158°
2026-05-04 02:31 35.98409 -86.51463 1201 ft 105 kts 97°
2026-05-04 02:31 35.98303 -86.50542 1399 ft 113 kts 102°
2026-05-04 02:31 35.98307 -86.49546 1600 ft 121 kts 83°
2026-05-04 02:31 35.98654 -86.48578 1788 ft 130 kts 40°
2026-05-04 02:32 35.99401 -86.47913 1982 ft 135 kts 36°
2026-05-04 02:32 36.00163 -86.47207 2170 ft 138 kts 35°
2026-05-04 02:32 36.00947 -86.46487 2359 ft 142 kts 36°
2026-05-04 02:32 36.01749 -86.45738 2500 ft 150 kts 36°
2026-05-04 02:33 36.02616 -86.44921 2508 ft 163 kts 36°
2026-05-04 02:33 36.03549 -86.44053 2506 ft 171 kts 36°
2026-05-04 02:33 36.04505 -86.43163 2587 ft 171 kts 35°
2026-05-04 02:33 36.05455 -86.42271 2660 ft 172 kts 36°
2026-05-04 02:34 36.06407 -86.41375 2721 ft 173 kts 36°
2026-05-04 02:34 36.07366 -86.40476 2793 ft 173 kts 36°
2026-05-04 02:34 36.08330 -86.39580 2851 ft 174 kts 35°
2026-05-04 02:34 36.09292 -86.38679 2913 ft 173 kts 36°
2026-05-04 02:35 36.10253 -86.37779 2958 ft 174 kts 35°
2026-05-04 02:35 36.11217 -86.36874 3025 ft 173 kts 36°
2026-05-04 02:35 36.12180 -86.35975 3076 ft 174 kts 36°
2026-05-04 02:35 36.13149 -86.35073 3126 ft 174 kts 36°
2026-05-04 02:36 36.14112 -86.34172 3187 ft 173 kts 36°
2026-05-04 02:36 36.15086 -86.33286 3229 ft 174 kts 27°
2026-05-04 02:36 36.16230 -86.33072 3231 ft 165 kts 338°
2026-05-04 02:36 36.17062 -86.33891 3237 ft 150 kts 290°
2026-05-04 02:37 36.17331 -86.35103 3232 ft 144 kts 267°
2026-05-04 02:37 36.17264 -86.36332 3220 ft 144 kts 265°
2026-05-04 02:37 36.17294 -86.37577 3216 ft 145 kts 268°
2026-05-04 02:37 36.17362 -86.38826 3237 ft 146 kts 269°
2026-05-04 02:38 36.17442 -86.40074 3260 ft 146 kts 270°
2026-05-04 02:38 36.17528 -86.41323 3273 ft 145 kts 269°
2026-05-04 02:38 36.17449 -86.42546 3270 ft 142 kts 252°
2026-05-04 02:38 36.17051 -86.43653 3270 ft 141 kts 236°
2026-05-04 02:39 36.16387 -86.44545 3268 ft 142 kts 219°
2026-05-04 02:39 36.15599 -86.45276 3276 ft 141 kts 219°
2026-05-04 02:39 36.14820 -86.46020 3282 ft 143 kts 219°
2026-05-04 02:39 36.14041 -86.46755 3124 ft 139 kts 219°
2026-05-04 02:40 36.13282 -86.47472 2945 ft 136 kts 219°
2026-05-04 02:40 36.12535 -86.48178 2766 ft 135 kts 219°
2026-05-04 02:40 36.11804 -86.48867 2589 ft 132 kts 218°
2026-05-04 02:40 36.11080 -86.49550 2409 ft 129 kts 218°
2026-05-04 02:41 36.10383 -86.50196 2249 ft 121 kts 215°
2026-05-04 02:41 36.09612 -86.50585 2086 ft 120 kts 196°
2026-05-04 02:41 36.08795 -86.50724 1938 ft 115 kts 192°
2026-05-04 02:41 36.08026 -86.50862 1783 ft 110 kts 192°
2026-05-04 02:42 36.07283 -86.50991 1642 ft 107 kts 192°
2026-05-04 02:42 36.06548 -86.51119 1487 ft 105 kts 191°
2026-05-04 02:42 36.05815 -86.51247 1355 ft 108 kts 189°
2026-05-04 02:42 36.05061 -86.51378 1217 ft 111 kts 189°
2026-05-04 02:43 36.04293 -86.51511 1143 ft 110 kts 189°
2026-05-04 02:43 36.03528 -86.51643 995 ft 113 kts 188°
2026-05-04 02:43 36.02741 -86.51793 796 ft 116 kts 190°
2026-05-04 02:43 36.01980 -86.51939 629 ft 104 kts 186°
2026-05-04 02:44 36.01306 -86.52003 529 ft 92 kts 184°
2026-05-04 02:44 36.00739 -86.52057 523 ft 81 kts 184°
2026-05-04 02:44 36.00119 -86.52120 586 ft 93 kts 185°
2026-05-04 02:44 35.99473 -86.52185 751 ft 96 kts 186°
2026-05-04 02:45 35.98749 -86.52308 798 ft 116 kts 187°
2026-05-04 02:45 35.97929 -86.52426 963 ft 121 kts 187°
2026-05-04 02:45 35.97075 -86.52534 1142 ft 125 kts 186°
2026-05-04 02:45 35.96202 -86.52637 1327 ft 127 kts 187°
2026-05-04 02:46 35.95330 -86.52729 1527 ft 126 kts 186°
2026-05-04 02:46 35.94459 -86.52803 1716 ft 125 kts 188°
2026-05-04 02:46 35.93596 -86.52843 1900 ft 123 kts 187°
2026-05-04 02:46 35.92745 -86.52874 2072 ft 121 kts 187°
2026-05-04 02:47 35.91910 -86.52864 2244 ft 122 kts 173°
2026-05-04 02:47 35.91298 -86.52128 2412 ft 137 kts 111°
2026-05-04 02:47 35.91499 -86.50958 2496 ft 152 kts 52°
2026-05-04 02:47 35.92427 -86.50354 2507 ft 155 kts 360°
2026-05-04 02:48 35.93509 -86.50315 2512 ft 161 kts 356°
2026-05-04 02:48 35.94663 -86.50297 2506 ft 166 kts 355°
2026-05-04 02:48 35.95831 -86.50278 2509 ft 169 kts 356°
2026-05-04 02:48 35.96994 -86.50261 2507 ft 170 kts 355°
2026-05-04 02:49 35.98181 -86.50240 2506 ft 171 kts 355°
2026-05-04 02:49 35.99370 -86.50217 2506 ft 171 kts 355°
2026-05-04 02:49 36.00562 -86.50200 2506 ft 172 kts 355°
2026-05-04 02:49 36.01755 -86.50177 2509 ft 171 kts 355°
2026-05-04 02:50 36.02945 -86.50158 2511 ft 171 kts 355°
2026-05-04 02:50 36.04140 -86.50130 2505 ft 172 kts 355°
2026-05-04 02:50 36.05335 -86.50106 2508 ft 172 kts 355°
2026-05-04 02:50 36.06531 -86.50086 2503 ft 172 kts 355°
2026-05-04 02:51 36.07730 -86.50059 2507 ft 172 kts 355°
2026-05-04 02:51 36.08926 -86.50035 2515 ft 172 kts 355°
2026-05-04 02:51 36.10125 -86.50010 2506 ft 173 kts 355°
2026-05-04 02:51 36.11328 -86.49987 2503 ft 173 kts 355°
2026-05-04 02:52 36.12528 -86.49964 2505 ft 172 kts 355°
2026-05-04 02:52 36.13727 -86.49943 2508 ft 172 kts 355°
2026-05-04 02:52 36.14924 -86.49922 2506 ft 172 kts 355°
2026-05-04 02:52 36.15722 -86.49904 2509 ft 174 kts 356°
2026-05-04 02:53 36.16935 -86.49885 2495 ft 175 kts 356°
2026-05-04 02:53 36.18155 -86.49877 2504 ft 176 kts 355°
2026-05-04 02:53 36.19384 -86.49862 2503 ft 177 kts 355°
2026-05-04 02:53 36.20610 -86.49849 2499 ft 176 kts 355°
2026-05-04 02:54 36.21842 -86.49825 2500 ft 177 kts 356°
2026-05-04 02:54 36.23075 -86.49810 2515 ft 177 kts 355°
2026-05-04 02:54 36.24306 -86.49800 2516 ft 177 kts 353°
2026-05-04 02:54 36.25375 -86.50313 2512 ft 160 kts 307°
2026-05-04 02:55 36.26299 -86.52691 2512 ft 154 kts 286°
2026-05-04 02:55 36.26705 -86.53914 2516 ft 153 kts 285°
2026-05-04 02:55 36.27110 -86.55138 2505 ft 154 kts 285°
2026-05-04 02:56 36.27509 -86.56371 2507 ft 154 kts 285°
2026-05-04 02:56 36.27907 -86.57598 2508 ft 153 kts 286°
2026-05-04 02:56 36.28172 -86.58832 2513 ft 145 kts 261°
2026-05-04 02:56 36.27677 -86.59838 2504 ft 141 kts 216°
2026-05-04 02:57 36.26808 -86.60400 2498 ft 142 kts 204°
2026-05-04 02:57 36.25886 -86.60850 2495 ft 143 kts 204°
2026-05-04 02:57 36.24946 -86.61256 2499 ft 144 kts 202°
2026-05-04 02:57 36.23995 -86.61659 2505 ft 145 kts 201°
2026-05-04 02:58 36.23034 -86.62039 2505 ft 145 kts 201°
2026-05-04 02:58 36.22071 -86.62426 2405 ft 148 kts 201°
2026-05-04 02:58 36.21109 -86.62812 2207 ft 141 kts 201°
2026-05-04 02:58 36.20224 -86.63170 2028 ft 125 kts 201°
2026-05-04 02:59 36.19446 -86.63481 1870 ft 113 kts 201°
2026-05-04 02:59 36.18692 -86.63788 1717 ft 115 kts 202°
2026-05-04 02:59 36.17928 -86.64099 1556 ft 116 kts 200°
2026-05-04 02:59 36.17149 -86.64407 1388 ft 119 kts 199°
2026-05-04 03:00 36.16342 -86.64732 1218 ft 125 kts 199°
2026-05-04 03:00 36.15513 -86.65064 1040 ft 126 kts 198°
2026-05-04 03:00 36.14692 -86.65392 871 ft 119 kts 199°
2026-05-04 03:00 36.13966 -86.65682 727 ft 102 kts 199°
2026-05-04 03:01 36.13324 -86.65945 581 ft 95 kts 198°
2026-05-04 03:01 36.12728 -86.66184 559 ft 80 kts 198°
2026-05-04 03:01 36.12162 -86.66421 619 ft 93 kts 200°
2026-05-04 03:01 36.11539 -86.66678 780 ft 96 kts 196°
2026-05-04 03:02 36.10894 -86.66926 958 ft 97 kts 196°
2026-05-04 03:02 36.10239 -86.67177 1131 ft 100 kts 199°
2026-05-04 03:02 36.09570 -86.67430 1312 ft 101 kts 198°
2026-05-04 03:02 36.08950 -86.67786 1499 ft 98 kts 232°
2026-05-04 03:03 36.09019 -86.68578 1695 ft 106 kts 301°
2026-05-04 03:03 36.09484 -86.69270 1867 ft 106 kts 298°
2026-05-04 03:03 36.09971 -86.70012 2012 ft 119 kts 300°
2026-05-04 03:03 36.10517 -86.70877 2026 ft 136 kts 300°
2026-05-04 03:04 36.11105 -86.71827 2024 ft 145 kts 299°
2026-05-04 03:04 36.11728 -86.72851 2019 ft 152 kts 300°
2026-05-04 03:04 36.12361 -86.73906 2022 ft 154 kts 300°
2026-05-04 03:04 36.13003 -86.74975 2025 ft 156 kts 300°
2026-05-04 03:05 36.13651 -86.76045 2047 ft 155 kts 300°
2026-05-04 03:05 36.14268 -86.77090 2236 ft 144 kts 297°
2026-05-04 03:05 36.14888 -86.78076 2306 ft 146 kts 300°
2026-05-04 03:05 36.15520 -86.79061 2387 ft 146 kts 300°
2026-05-04 03:06 36.16150 -86.80047 2464 ft 148 kts 300°
2026-05-04 03:06 36.16795 -86.81071 2466 ft 153 kts 300°
2026-05-04 03:06 36.17449 -86.82128 2462 ft 156 kts 300°
2026-05-04 03:06 36.18110 -86.83201 2467 ft 157 kts 300°
2026-05-04 03:07 36.18773 -86.84275 2471 ft 157 kts 300°
2026-05-04 03:07 36.19438 -86.85351 2474 ft 158 kts 300°
2026-05-04 03:07 36.20103 -86.86424 2476 ft 157 kts 300°
2026-05-04 03:07 36.20769 -86.87494 2476 ft 157 kts 300°
2026-05-04 03:08 36.21440 -86.88574 2474 ft 159 kts 300°
2026-05-04 03:08 36.22113 -86.89660 2474 ft 160 kts 300°
2026-05-04 03:08 36.23038 -86.90451 2456 ft 172 kts 341°
2026-05-04 03:08 36.24238 -86.90272 2469 ft 177 kts 13°
2026-05-04 03:09 36.25422 -86.89820 2474 ft 180 kts 13°
2026-05-04 03:09 36.26621 -86.89350 2473 ft 181 kts 13°
2026-05-04 03:09 36.27813 -86.88871 2486 ft 180 kts 14°
2026-05-04 03:09 36.29006 -86.88404 2482 ft 180 kts 13°
2026-05-04 03:10 36.30204 -86.87926 2478 ft 182 kts 14°
2026-05-04 03:10 36.31425 -86.87438 2479 ft 187 kts 15°
2026-05-04 03:10 36.32456 -86.86504 2469 ft 182 kts 58°
2026-05-04 03:10 36.32679 -86.85115 2458 ft 154 kts 110°
2026-05-04 03:11 36.32102 -86.84224 2465 ft 123 kts 168°
2026-05-04 03:11 36.31367 -86.84329 2472 ft 104 kts 205°
2026-05-04 03:11 36.30658 -86.84580 2480 ft 107 kts 201°
2026-05-04 03:11 36.29931 -86.84836 2467 ft 110 kts 201°
2026-05-04 03:12 36.29197 -86.85092 2480 ft 110 kts 201°
2026-05-04 03:12 36.28461 -86.85333 2482 ft 108 kts 200°
2026-05-04 03:12 36.27742 -86.85568 2478 ft 107 kts 200°
2026-05-04 03:12 36.26967 -86.85820 2227 ft 125 kts 199°
2026-05-04 03:13 36.26130 -86.86144 1979 ft 127 kts 201°
2026-05-04 03:13 36.25317 -86.86491 1777 ft 121 kts 202°
2026-05-04 03:13 36.24493 -86.86690 1651 ft 120 kts 196°
2026-05-04 03:13 36.23687 -86.86922 1512 ft 118 kts 197°
2026-05-04 03:14 36.22893 -86.87166 1318 ft 118 kts 195°
2026-05-04 03:14 36.22080 -86.87417 1120 ft 122 kts 195°
2026-05-04 03:14 36.21246 -86.87687 978 ft 125 kts 195°
2026-05-04 03:14 36.20399 -86.87966 821 ft 127 kts 195°
2026-05-04 03:15 36.19538 -86.88248 659 ft 128 kts 195°
2026-05-04 03:15 36.18739 -86.88509 508 ft 107 kts 195°
2026-05-04 03:15 36.18214 -86.88682 482 ft 46 kts 195°
2026-05-04 03:15 36.17982 -86.88757 474 ft 20 kts 194°
2026-05-04 03:16 36.17927 -86.88733 474 ft 7 kts 93°
2026-05-04 03:16 36.17918 -86.88682 474 ft 5 kts 104°
2026-05-04 03:16 36.17906 -86.88631 473 ft 11 kts 105°
2026-05-04 03:16 36.17870 -86.88502 471 ft 18 kts 127°
2026-05-04 03:17 36.17793 -86.88404 475 ft 12 kts 123°
2026-05-04 03:17 36.17813 -86.88360 475 ft 8 kts 338°
2026-05-04 03:17 36.17839 -86.88352 475 ft 0 kts 49°